This is the latest recevied weather packets stored in our database for station/object lw9ero. If no packets are shown the sender has not sent any weather packets the latest 10 day(s).
| Time | Temp. | Humidity | Pressure | Rain* | Wind** | Luminosity | Snow |
|---|---|---|---|---|---|---|---|
| 1778110596 | 20.56° C | 97% | 1003 hPa | 0.25 mm | - | - | - |
| 1778109990 | 20.56° C | 97% | 1003 hPa | 0.25 mm | - | - | - |
| 1778109397 | 20.56° C | 97% | 1002.1 hPa | 0.25 mm | - | - | - |
| 1778108780 | 20.56° C | 96% | 1002.3 hPa | 0.25 mm | - | - | - |
| 1778108171 | 22.78° C | 94% | 1004.1 hPa | 0.25 mm | - | - | - |
| 1778107564 | 23.33° C | 93% | 1001.3 hPa | 0 mm | - | - | - |
| 1778106959 | 23.33° C | 92% | 1001 hPa | 0 mm | - | - | - |
| 1778106352 | 23.89° C | 92% | 1002.1 hPa | 0 mm | - | - | - |
| 1778105748 | 23.89° C | 92% | 1002.7 hPa | 0 mm | - | - | - |
| 1778105140 | 23.89° C | 91% | 1002.9 hPa | 0 mm | - | - | - |
| 1778104533 | 23.89° C | 91% | 1003.1 hPa | 0 mm | - | - | - |
| 1778103928 | 23.89° C | 90% | 1003.3 hPa | 0 mm | - | - | - |
| 1778103322 | 23.89° C | 90% | 1003.5 hPa | 0 mm | - | - | - |
| 1778102717 | 23.89° C | 88% | 1003 hPa | 0 mm | - | - | - |
| 1778102109 | 24.44° C | 86% | 1003 hPa | 0 mm | - | - | - |
| 1778101516 | 25° C | 84% | 1002.9 hPa | 0 mm | - | - | - |
| 1778100882 | 25° C | 81% | 1003.1 hPa | 0 mm | - | - | - |
| 1778100276 | 25.56° C | 80% | 1003.2 hPa | 0 mm | - | - | - |
| 1778099670 | 25.56° C | 82% | 1003.5 hPa | 0 mm | - | - | - |
| 1778099064 | 25° C | 85% | 1004.2 hPa | 0 mm | - | - | - |
| 1778098459 | 25.56° C | 84% | 1004 hPa | 0 mm | - | - | - |
| 1778097851 | 25.56° C | 83% | 1004.1 hPa | 0 mm | - | - | - |
| 1778097245 | 25.56° C | 83% | 1004 hPa | 0 mm | - | - | - |
| 1778096639 | 26.11° C | 82% | 1004 hPa | 0 mm | - | - | - |
| 1778096033 | 26.67° C | 78% | 1004.2 hPa | 0 mm | - | - | - |
* Rain latest hour (hover to see other rain measurements)
** Current wind speed in m/s (hover to see current wind gust speed)